Regional Weather Roundup
Issued by NWS Glasgow, MT

Home | Current Version | Previous Version | Text Only | Print | Product List | Glossary On
Versions: 1 2 3 4 5 6 7 8 9 10 11 12 13 14 15 16 17 18 19 20 21 22 23 24 25 26 27 28 29 30 31 32 33 34 35 36 37 38 39 40 41 42 43 44 45 46 47 48 49 50
000
ASUS45 KGGW 260615
RWRGGW
HOURLY REGIONAL WEATHER ROUNDUP FOR NORTHEAST MONTANA
NATIONAL WEATHER SERVICE GLASGOW MONTANA
1200 AM MDT TUE MAY 26 2015

NOTE: "FAIR" INDICATES FEW OR NO CLOUDS BELOW 12,000 FEET WITH NO
SIGNIFICANT WEATHER AND/OR OBSTRUCTIONS TO VISISBILITY.

NORTHEAST MONTANA


CITY           SKY/WX    TMP DP  RH WIND       PRES   REMARKS
GLASGOW        CLEAR     53  45  74 E8        29.89R
6HR MIN TEMP:  53; 6HR MAX TEMP:  74;

WOLF POINT     CLEAR     51  45  79 CALM      29.90S
JORDAN           N/A     50  48  93 CALM      29.89S
WINNETT          N/A     51  47  86 SW2         N/A
SIDNEY         CLEAR     52  46  82 CALM      29.91R
GLENDIVE       PTCLDY    52  46  82 S3        29.93R
MALTA            N/A     58  50  75 NE9         N/A
SCOBEY           N/A     53  42  66 CALM      29.90S

FORT PECK REPORTS


CITY           SKY/WX    TMP DP  RH WIND       PRES   REMARKS
FORT PECK        N/A     58  50  75 E12         N/A
THE PINES        N/A     59  47  64 S5          N/A

SOUTHEAST MONTANA


CITY           SKY/WX    TMP DP  RH WIND       PRES   REMARKS
BILLINGS       CLEAR     57  46  66 E3        29.90S
MILES CITY     PTCLDY    54  50  86 S7        29.90S
BAKER          PTCLDY    46  45  96 E6        29.94S
LIVINGSTON     CLOUDY    57  44  62 CALM      29.91R

CENTRAL MONTANA


CITY           SKY/WX    TMP DP  RH WIND       PRES   REMARKS
HAVRE          PTCLDY    57  41  55 CALM      29.85R
LEWISTOWN      PTCLDY    53  45  74 E7        29.90S
GREAT FALLS    LGT RAIN  52  48  86 NW8       29.90F
CUT BANK       CLOUDY    53  46  77 W6        29.89F
HELENA         CLOUDY    57  45  64 NW9       29.92S
BUTTE          LGT RAIN  47  44  90 W7        30.01R
BOZEMAN        LGT RAIN  53  47  79 E3        29.96R

WESTERN MONTANA


CITY           SKY/WX    TMP DP  RH WIND       PRES   REMARKS
MISSOULA       MOCLDY    51  48  89 NW5       29.95S
KALISPELL      NOT AVBL

NORTH DAKOTA


CITY           SKY/WX    TMP DP  RH WIND       PRES   REMARKS
WILLISTON      CLEAR     52  47  83 SW6       29.89S
DICKINSON      CLEAR     50  46  86 SW10      29.92R
MINOT          CLEAR     62  46  55 W15       29.83S
BISMARCK       CLEAR     57  52  83 W6        29.90R

SOUTHERN SASKATCHEWAN


CITY           SKY/WX    TMP DP  RH WIND       PRES   REMARKS
REGINA         CLEAR     57  39  51 SW8       29.85R
ESTEVAN        PTCLDY    59  46  63 W9        29.87R
SWIFT CURRENT  PTCLDY    57  36  44 S12       29.87R




USA.gov is the U.S. government's official web portal to all federal, state and local government web resources and services.